Terug naar catalogus

YAOGAN-39 03A

ActiefMilitairVLEO
NORAD 57986·PAYLOAD·🇨🇳 China

Gelanceerd Oct 5, 2023 vanaf Xichang Satellite Launch Center

Loading…

Volgende Passages (komende 24 uur)

TLE

VersSource: Space-Track

Epoch: Sep 14, 2026, 22:25 UTC

1 57986U 23152A   26257.93438411  .00008350  00000-0  34719-3 0  9996
2 57986  35.0014  68.1012 0004126 264.9295  95.0949 15.23048757164131

Volg YAOGAN-39 03A in realtime met AllMySat

Download on the App Store